CW5709 Weather Reports


Display with metric or nautical units.
time (UTC)temp
F
wind
direction
speed
MPH
gust
MPH
rain 1hr
in
rain 24hr
in
rain mn
in
humidity
%
barometer
mb
20260503020018 69 0.0 0.0 0.00 0.02 0.02 61 1012.4
20260503014517 69 0.0 0.0 0.00 0.02 0.02 59 1012.3
20260503013019 70 0.0 0.0 0.00 0.02 0.02 57 1012.7
20260503011506 71 0.0 0.0 0.00 0.02 0.02 55 1012.5
20260503010014 71 0.0 0.0 0.00 0.02 0.02 56 1012.4
20260503004520 71 0.0 0.0 0.00 0.02 0.02 56 1012.3
20260503001521 70 0.0 0.0 0.00 0.02 0.02 56 1012.3
20260503000011 70 0.0 0.0 0.00 0.02 0.02 56 1012.0
20260502234516 70 0.0 0.0 0.00 0.02 0.02 54 1012.2
20260502233022 71 0.0 0.0 0.00 0.02 0.02 54 1012.3
20260502231524 72 0.0 0.0 0.00 0.02 0.02 52 1012.4
20260502230025 72 0.0 0.0 0.00 0.02 0.02 52 1012.7
20260502224512 73 0.0 0.0 0.00 0.02 0.02 49 1012.8
20260502223016 74 0.0 0.0 0.00 0.02 0.02 49 1013.1
20260502221521 73 0.0 0.0 0.00 0.02 0.02 48 1013.5
20260502220029 73 0.0 0.0 0.00 0.02 0.02 48 1013.7
20260502214523 72 0.0 0.0 0.00 0.02 0.02 51 1013.9
20260502213017 72 0.0 0.0 0.00 0.02 0.02 50 1014.0
20260502211518 71 0.0 0.0 0.00 0.02 0.02 49 1014.1
20260502210023 71 0.0 0.0 0.00 0.02 0.02 50 1014.4
20260502204533 70 0.0 0.0 0.00 0.02 0.02 53 1014.7
20260502203023 67 0.0 0.0 0.00 0.02 0.02 56 1014.7
20260502201516 66 0.0 0.0 0.00 0.02 0.02 59 1015.0
20260502200037 66 0.0 0.0 0.00 0.02 0.02 60 1015.1
20260502194525 63 0.0 0.0 0.00 0.02 0.02 64 1015.2
20260502193024 61 0.0 0.0 0.00 0.02 0.02 68 1015.6
20260502191525 59 0.0 0.0 0.00 0.02 0.02 68 1015.8
20260502190020 59 0.0 0.0 0.00 0.02 0.02 71 1015.9
20260502184524 58 0.0 0.0 0.00 0.02 0.02 76 1015.9
20260502183025 57 0.0 0.0 0.00 0.02 0.02 80 1016.0
20260502181519 55 0.0 0.0 0.00 0.02 0.02 82 1016.1
20260502163022 51 0.0 0.0 0.00 0.02 0.02 90 1016.6
20260502161509 51 0.0 0.0 0.00 0.02 0.02 90 1016.0
20260502151522 50 0.0 0.0 0.00 0.02 0.02 91 1016.7
20260502123018 50 0.0 0.0 0.00 0.00 0.00 81 1016.6
20260502121524 50 0.0 0.0 0.00 0.00 0.00 81 1016.8
20260502114524 50 0.0 0.0 0.00 0.00 0.00 81 1016.7
20260502113026 50 0.0 0.0 0.00 0.00 0.00 81 1016.6
20260502111518 51 0.0 0.0 0.00 0.00 0.00 81 1016.7
20260502110022 51 0.0 0.0 0.00 0.00 0.00 81 1016.7
20260502104524 51 0.0 0.0 0.00 0.00 0.00 80 1016.7
20260502103054 51 0.0 0.0 0.00 0.00 0.00 80 1016.6
20260502101533 51 0.0 0.0 0.00 0.00 0.00 79 1016.7
20260502071514 52 0.0 0.0 0.00 0.00 0.00 78 1017.8
20260502064518 52 0.0 0.0 0.00 0.00 0.00 77 1017.6
20260502061526 52 0.0 0.0 0.00 0.00 0.00 77 1017.6
20260502060012 52 0.0 0.0 0.00 0.00 0.00 77 1017.7
20260502054515 52 0.0 0.0 0.00 0.00 0.00 77 1017.8
20260502053022 53 0.0 0.0 0.00 0.00 0.00 78 1017.6
20260502051525 53 0.0 0.0 0.00 0.00 0.00 77 1017.4
20260502050024 53 0.0 0.0 0.00 0.00 0.00 77 1017.4
20260502041532 54 0.0 0.0 0.00 0.00 0.00 75 1016.8
20260502040026 54 0.0 0.0 0.00 0.00 0.00 74 1016.6
20260502034525 55 0.0 0.0 0.00 0.00 0.00 73 1016.4
20260502033013 56 0.0 0.0 0.00 0.00 0.00 71 1016.2
20260502030020 58 0.0 0.0 0.00 0.00 0.00 69 1015.8
20260502023009 60 0.0 0.0 0.00 0.00 0.00 65 1015.3
20260502021517 61 0.0 0.0 0.00 0.00 0.00 63 1015.3